Location: Alphen
(52.1351°N, 4.6549°E)
Time: 02:08:39
(UTC+00:00)

CZ-4B R/B - Pass Details

Date: 27 January 2021
Orbit: 486 x 652 km, 97.9° (Epoch: 26 February)

Event Time Altitude Azimuth Distance (km) Brightness Sun altitude
Rises 06:40:00 0° 360° (N) 2,579 6.0 -7.7°
Reaches altitude 10° 06:42:47 10° 335° (NNW) 1,704 4.9 -7.3°
Maximum altitude 06:44:50 15° 301° (WNW) 1,448 4.3 -7.0°
Drops below altitude 10° 06:46:55 10° 267° (W) 1,727 4.8 -6.7°
Sets 06:49:46 0° 243° (WSW) 2,637 5.9 -6.3°
